Starlink 32189

operational
NORAD ID: 60317 Int'l Des: 2024-133 Owner: SPXS Country: US Constellation: starlink
LEOCIRCULAR

关于 Starlink 32189

正在加载描述...

实时位置

正在加载3D地球...

即将过境

高度历史

Altitude vs Time

uPlot chart will show altitude changes over time

两行轨道根数

1 60317U 24133S 25352.32822319 .00003340 00000-0 12486-3 0 9991
2 60317 53.1618 314.9692 0001108 84.9699 275.1428 15.30194490 79272
Epoch: Dec 18, 2025 • Age: 18 hours

当前状态

高度 480.7 km
速度 7.63 km/s
星下点 51.67°N, 50.29°W
发射日期 Jul 28, 2024
运行时间 1.3 years
类型 internet

技术详情

分类 Payload
质量 730.00 kg
干质量 700.00 kg
总质量 730.00 kg
长度 0.30 m
直径 4.10 m
跨度 29.00 m
形状 Box + pan
制造商 SPXS
平台类型 Starlink V2M
阶段状态 In Orbit
所有者/国家 SPXS/US

大型星座

Loading constellations...